Home   Weather   Walsall   Past weeks

Flag for United Kingdom Past Weather in Walsall, England, United Kingdom — Yesterday and Last 2 Weeks

Now
43 °F

Partly sunny.


Feels Like: 39 °F
Forecast: 32 / 39 °F
Wind: 6 mph from East

Location: Birmingham / Airport

Current Time: Dec 3, 2016 at 11:51:37 am

Latest Report: Dec 3, 2016 at 11:20 am


Visibility: N/A

Pressure: 30.30 "Hg

Humidity: 81%

Dew Point: 37 °F

Location of WalsallLocation

Past Weather in Walsall — Graph

°F

Walsall Temperature Yesterday

Maximum temperature yesterday: 46 °F (at 1:20 pm)
Minimum temperature yesterday: 41 °F (at 7:50 pm)
Average temperature yesterday: 44 °F

High & Low Weather Summary for the Past Weeks

 TemperatureHumidityPressure
High48 °F (Nov 21, 5:20 pm)100% (Nov 18, 7:20 pm)30.57 "Hg (Nov 18, 7:20 pm)
Low25 °F (Nov 29, 6:20 am)53% (Nov 28, 1:50 pm)28.91 "Hg (Nov 20, 4:50 am)
Average41 °F93%30.03 "Hg
* Reported Nov 18 10:20 am — Dec 3 10:20 am, Walsall, Weather by CustomWeather, © 2016

Note: Actual official high and low records may vary slightly from our data, if they occured in-between our weather recording intervals... More about our weather records

Advertising

Walsall Weather History for the Previous 24 Hours

Scroll right to see more
 ConditionsComfort  
Time TempWeatherWind HumidityBarometerVisibility
10:20 am
Sat, Dec 3
43 °FPartly sunny.5 mph81%30.33 "HgN/A
9:50 am43 °FPartly sunny.6 mph81%30.30 "HgN/A
9:20 am41 °FPartly sunny.6 mph87%30.30 "HgN/A
8:50 am41 °FPartly sunny.6 mph93%30.30 "HgN/A
8:20 am41 °FOvercast.5 mph93%30.30 "HgN/A
7:50 am41 °FOvercast.5 mph93%30.30 "HgN/A
7:20 am41 °FOvercast.6 mph93%30.30 "HgN/A
6:50 am41 °FPassing clouds.6 mph93%30.30 "HgN/A
6:20 am41 °FPassing clouds.5 mph100%30.30 "HgN/A
5:50 am41 °FPartly cloudy.6 mph100%30.30 "Hg6 mi
5:20 am41 °FPassing clouds.9 mph100%30.30 "Hg6 mi
4:50 am41 °FPassing clouds.7 mph100%30.30 "HgN/A
4:20 am41 °FPassing clouds.7 mph100%30.30 "HgN/A
3:50 am41 °FMostly cloudy.6 mph100%30.30 "HgN/A
3:20 am43 °FLow clouds.7 mph100%30.30 "HgN/A
2:50 am43 °FMostly cloudy.7 mph100%30.30 "Hg6 mi
2:20 am43 °FPartly cloudy.5 mph100%30.30 "Hg4 mi
1:50 am43 °FFog.3 mph100%30.30 "Hg3 mi
1:20 am43 °FFog.5 mph100%30.30 "Hg2 mi
12:50 am43 °FFog.3 mph100%30.30 "Hg2 mi
12:20 am43 °FFog.5 mph100%30.30 "Hg2 mi
11:50 pm
Fri, Dec 2
41 °FPartly cloudy.5 mph100%30.30 "Hg4 mi
11:20 pm41 °FPartly cloudy.3 mph100%30.30 "Hg5 mi
10:50 pm41 °FLight rain. Passing clouds.3 mph100%30.30 "Hg6 mi
10:20 pm41 °FPassing clouds.3 mph100%30.30 "HgN/A
9:50 pm41 °FLight rain. Partly cloudy.No wind100%30.30 "Hg4 mi
9:20 pm41 °FLight rain. Partly cloudy.3 mph93%30.30 "HgN/A
8:50 pm41 °FPassing clouds.2 mph93%30.30 "HgN/A
8:20 pm41 °FPartly cloudy.3 mph100%30.30 "HgN/A
7:50 pm41 °FPassing clouds.3 mph93%30.33 "HgN/A
7:20 pm43 °FPassing clouds.No wind93%30.33 "HgN/A
6:50 pm43 °FPassing clouds.No wind93%30.30 "HgN/A
6:20 pm43 °FPassing clouds.3 mph93%30.30 "HgN/A
5:50 pm43 °FPassing clouds.3 mph93%30.30 "HgN/A
5:20 pm45 °FPassing clouds.3 mph87%30.30 "HgN/A
4:50 pm45 °FPassing clouds.3 mph87%30.30 "HgN/A
4:20 pm45 °FPassing clouds.3 mph87%30.30 "Hg6 mi
3:50 pm45 °FPartly sunny.3 mph87%30.30 "HgN/A
3:20 pm45 °FOvercast.3 mph87%30.30 "HgN/A
2:50 pm45 °FOvercast.3 mph87%30.30 "HgN/A
2:20 pm45 °FOvercast.3 mph87%30.30 "HgN/A
1:50 pm45 °FOvercast.3 mph87%30.33 "HgN/A
1:20 pm46 °FOvercast.3 mph82%30.33 "HgN/A
12:50 pm45 °FOvercast.3 mph87%30.33 "HgN/A
12:20 pm45 °FOvercast.2 mph93%30.33 "HgN/A
11:50 am45 °FOvercast.2 mph93%30.33 "HgN/A
11:20 am45 °FOvercast.3 mph93%30.33 "HgN/A
Weather by CustomWeather, © 2016

See weather overviewHow to use our weather pages